Date,TemperatureHighF,TemperatureAvgF,TemperatureLowF,DewpointHighF,DewpointAvgF,DewpointLowF,HumidityHigh,HumidityAvg,HumidityLow,PressureMaxIn,PressureMinIn,WindSpeedMaxMPH,WindSpeedAvgMPH,GustSpeedMaxMPH,PrecipitationSumIn
2013-3-1,38,36,32,30,27,23,76,69,62,29.94,29.85,10,6,14,0.00
2013-3-2,34,30,28,24,22,19,74,69,63,29.95,29.86,11,7,16,0.00
2013-3-3,37,32,28,23,20,17,72,61,54,29.97,29.87,15,10,23,0.00
2013-3-4,40,34,25,21,19,14,62,53,44,30.08,30.00,16,9,24,0.00
2013-3-5,50,44,34,29,24,21,60,44,36,30.10,29.84,8,3,15,0.00
2013-3-6,38,35,32,33,32,30,96,87,74,30.06,29.73,20,11,29,0.53
2013-3-7,41,39,37,30,29,28,74,66,61,30.22,30.15,12,8,18,0.00
2013-3-8,42,38,34,32,29,26,77,71,67,30.36,30.23,18,12,23,0.00
2013-3-9,59,46,33,34,30,26,82,55,31,30.42,30.28,8,2,10,0.00
2013-3-10,62,53,27,38,33,24,89,49,36,30.33,30.19,7,3,13,0.00
2013-3-11,56,52,42,49,41,34,82,67,46,30.13,29.92,8,3,16,0.00
2013-3-12,53,47,40,51,40,31,95,77,63,29.97,29.76,16,10,23,0.66
2013-3-13,45,38,31,32,27,20,87,65,49,30.10,29.94,18,9,26,0.00
2013-3-14,42,36,28,24,20,17,63,53,47,30.19,30.09,18,12,26,0.00
2013-3-15,57,47,27,40,31,19,72,54,44,30.09,29.81,14,5,18,0.00
2013-3-16,55,45,38,45,40,34,89,81,68,29.89,29.64,7,2,11,0.03
2013-3-17,37,36,34,34,30,26,93,79,65,30.26,30.10,6,3,10,0.00
2013-3-18,32,31,29,31,29,28,96,94,91,30.32,29.96,6,2,8,0.25
2013-3-19,55,45,32,43,30,17,97,60,30,29.92,29.76,20,9,28,0.26
2013-3-20,49,43,32,28,22,16,69,43,34,30.01,29.78,15,9,22,0.00
2013-3-21,32,29,24,19,15,12,74,57,49,29.92,29.82,15,10,22,0.00
2013-3-22,44,37,26,25,21,16,76,52,44,30.02,29.93,14,8,24,0.00
2013-3-23,52,44,20,28,26,17,88,50,37,30.07,29.94,11,6,15,0.00
2013-3-24,35,32,31,30,30,28,94,91,77,29.77,29.71,1,0,2,0.00
2013-3-25,39,34,31,35,32,30,96,92,78,29.70,29.56,4,1,7,0.58
2013-3-26,45,40,34,35,30,28,85,68,58,30.03,29.86,14,9,20,0.05
2013-3-27,45,40,34,36,30,26,86,68,58,30.16,30.09,15,9,23,0.00
2013-3-28,45,42,38,34,31,29,72,66,62,30.26,30.15,14,8,20,0.00
2013-3-29,54,47,36,35,32,27,81,56,42,30.29,30.17,11,5,18,0.00
2013-3-30,59,52,34,34,31,28,84,47,34,30.27,30.11,8,2,14,0.00
2013-3-31,49,46,41,47,44,38,96,92,89,29.94,29.77,4,1,7,0.16